Back to catalog

MIMAN

AliveScienceSSO
NORAD 52900·PAYLOAD·🇰🇷 South Korea

Launched Jun 21, 2022 from Naro Space Center

Loading…

Next Passes (next 24 hours)

TLE

FreshSource: Space-Track

Epoch: Sep 14, 2026, 15:26 UTC

1 52900U 22065G   26257.64336348  .00000368  00000-0  83111-4 0  9995
2 52900  98.2397  39.7461 0008838 104.6605 255.5576 14.61924775223519

Track MIMAN in real time with AllMySat

Download on the App Store